Theta_e
351 352 354 356 356 356 355 355 355 354 354 354 354 353 353 353 353 352 352 351 351 351 350 350 350 350 349 349 348 348 347 344 343 343 344 344 345 345 345 346 347 348 348 347 348 349 350 352 350 350 351 350 349 350 348 349 347 348 348 347 347 347 346 347 347 346 347 346 347 348 348 348 348 348 348 348 347 345 345 346 345 343 343 345 345
350 353 354 354 356 355 355 355 355 354 354 354 353 353 352 353 352 352 351 350 350 350 350 349 349 350 349 348 348 347 345 345 344 344 344 345 344 344 345 347 346 347 349 350 350 350 351 351 350 350 350 351 351 350 348 349 347 347 347 347 347 347 347 346 347 347 346 346 346 346 345 346 346 346 347 347 347 345 345 345 345 342 344 345 346
353 353 353 354 356 355 355 354 354 354 354 353 352 352 352 352 351 351 350 350 349 349 349 349 348 348 349 348 347 347 345 345 345 345 345 345 344 345 345 346 347 349 351 350 350 349 349 351 351 351 350 350 350 349 348 349 348 347 348 347 347 346 346 345 345 345 345 345 345 345 344 344 344 345 346 346 346 346 344 344 345 344 344 345 344
351 353 354 354 356 355 355 354 354 354 353 352 352 352 352 351 351 351 350 350 349 349 349 348 348 349 348 348 347 346 346 346 345 345 345 345 345 346 346 347 348 349 350 350 350 349 350 351 350 350 350 350 350 350 351 349 349 347 347 346 346 346 345 345 344 344 344 345 344 342 342 339 341 343 344 345 345 344 344 344 345 344 343 344 343
352 353 353 354 353 354 354 354 353 353 353 352 352 352 351 351 350 350 350 349 349 348 349 349 349 349 349 348 347 346 346 345 345 345 345 346 347 347 346 347 347 350 350 351 351 350 350 350 350 349 349 349 350 349 349 349 348 347 347 346 346 345 345 345 344 343 343 344 343 341 337 337 339 342 343 343 343 342 342 343 343 344 344 345 345
352 353 353 353 352 353 354 353 354 353 353 352 352 351 351 350 350 350 349 349 349 347 348 349 348 350 349 348 348 348 347 346 346 346 346 346 347 346 346 346 349 350 350 351 350 351 351 350 349 349 349 349 350 349 348 347 345 345 345 346 346 345 345 344 343 343 343 343 342 339 338 338 338 337 341 341 342 341 341 341 341 345 344 345 345
352 353 352 352 352 353 354 354 352 353 352 351 351 352 351 350 350 349 349 349 349 349 348 348 349 349 349 348 348 348 348 347 346 346 346 346 347 346 346 347 348 348 349 349 349 350 349 349 349 349 349 349 349 346 344 343 344 345 345 345 345 344 343 343 342 341 342 339 338 338 338 338 339 339 342 341 340 341 341 340 340 344 345 344 345
353 353 353 352 352 354 354 353 352 352 352 353 352 350 350 350 349 350 349 349 349 348 349 350 349 350 349 348 348 347 347 347 347 346 346 346 347 348 347 346 347 348 348 347 348 348 348 349 349 348 349 348 347 344 343 345 345 346 346 344 344 344 344 342 341 341 341 336 336 336 335 333 334 337 341 341 340 341 340 340 339 342 344 344 344
352 353 353 352 351 354 353 353 352 352 352 351 350 350 350 350 350 348 349 349 349 349 349 350 349 348 348 348 348 347 347 347 347 347 347 347 346 346 346 347 347 347 347 347 347 348 348 347 348 348 348 346 344 344 345 345 345 346 346 346 345 344 343 342 341 341 338 337 336 335 334 332 331 332 335 337 337 338 339 340 339 342 343 343 343
352 352 352 351 351 355 353 353 352 352 352 351 350 350 351 350 349 349 349 349 349 350 350 349 348 349 348 348 347 347 347 347 347 347 347 347 347 347 346 346 347 347 347 347 347 347 347 347 347 347 346 344 344 345 345 345 345 345 346 346 344 342 342 341 340 339 334 335 336 336 338 339 334 335 339 341 341 339 339 339 340 341 342 342 342
352 352 352 352 353 354 353 353 353 352 351 351 350 350 349 349 349 349 350 350 349 350 349 349 348 349 348 347 347 348 347 346 348 348 347 346 346 346 346 347 347 347 347 347 347 347 347 347 347 346 345 344 344 345 345 344 344 344 344 343 343 341 339 337 335 331 331 332 333 334 337 338 333 335 338 338 338 338 338 338 338 339 340 343 344
351 352 352 352 354 353 353 352 353 352 352 352 351 351 350 350 350 349 350 349 350 350 350 349 349 348 347 348 347 347 346 347 347 347 347 346 345 345 346 347 347 347 347 347 347 347 346 347 346 346 344 344 345 345 345 344 343 343 342 341 339 339 338 337 332 332 331 332 332 332 332 333 333 334 336 339 339 336 336 337 337 338 338 341 342
350 351 352 352 352 354 352 352 352 352 352 352 352 352 351 351 350 350 350 350 350 351 349 349 349 348 348 347 347 346 346 346 346 347 346 346 346 346 347 348 347 347 347 347 347 348 348 347 346 346 345 344 345 346 344 343 342 342 341 340 339 339 338 336 330 331 332 332 333 333 333 334 338 340 338 337 337 338 339 338 338 338 338 339 339
350 351 352 352 351 354 352 353 352 353 352 352 352 351 351 351 350 350 351 351 351 351 350 350 349 349 349 348 347 347 347 346 346 347 346 346 347 348 347 347 347 347 348 347 348 348 347 347 347 346 345 345 346 346 344 342 341 341 340 340 339 338 338 336 335 332 334 334 336 333 334 337 337 339 340 341 340 339 339 338 338 339 338 338 338
349 351 351 352 352 351 353 353 352 352 352 352 352 352 351 351 351 351 351 351 351 351 350 350 350 349 348 347 346 346 346 347 347 347 348 348 348 348 348 347 347 347 347 347 348 348 348 347 346 346 345 345 346 345 344 342 342 341 340 339 338 337 335 330 331 331 332 334 333 332 333 337 339 339 339 338 338 339 340 338 337 336 337 337 338
351 351 352 351 351 351 352 353 353 352 352 352 352 352 351 351 351 351 351 351 351 350 350 350 349 349 349 348 347 346 346 348 349 348 348 347 348 348 347 347 347 347 347 347 347 347 346 346 345 346 346 346 346 345 343 343 342 341 340 339 337 337 337 333 329 329 330 331 332 334 333 336 340 339 339 340 340 339 337 337 337 339 340 340 339
351 351 350 350 350 351 351 352 352 353 352 352 352 352 351 351 351 351 351 351 351 351 350 349 349 349 349 348 347 346 347 347 348 348 347 348 348 348 347 346 347 347 347 346 346 346 346 346 346 346 346 346 346 345 344 342 342 340 339 338 338 337 337 334 330 331 333 334 333 331 333 335 337 339 339 338 336 336 335 335 337 338 338 338 339
349 350 350 350 350 350 350 350 350 350 349 351 352 352 351 351 351 351 351 350 351 350 350 349 350 350 349 349 348 347 347 347 347 348 348 348 348 347 346 347 346 346 346 346 346 346 346 346 345 346 346 346 346 345 344 342 341 340 339 338 338 337 337 335 331 332 334 335 332 336 334 336 339 338 337 336 337 337 340 340 340 340 339 339 339
347 348 350 350 349 350 350 349 349 348 348 347 349 350 351 350 351 351 351 351 351 351 350 350 349 349 349 349 350 350 350 349 348 348 348 348 347 347 346 346 346 346 346 346 347 346 347 345 345 345 345 346 346 345 344 342 341 340 339 338 338 337 337 333 330 331 333 332 333 332 335 337 339 338 337 338 341 341 341 341 341 340 340 339 338
344 346 347 349 350 349 349 349 348 348 348 347 348 348 350 351 351 351 351 350 351 351 351 351 350 350 350 349 349 350 350 348 350 348 349 348 346 344 346 345 345 346 346 346 346 346 346 345 345 345 345 345 345 344 343 342 341 340 339 338 338 336 330 330 330 330 332 335 335 333 336 336 336 337 336 337 339 340 340 339 339 339 339 338 338
343 344 345 347 349 348 348 347 348 348 348 347 346 346 349 350 350 351 351 351 350 351 351 351 351 349 349 349 347 346 345 346 347 347 349 346 346 346 346 346 345 346 346 346 346 346 345 345 345 344 344 345 343 342 342 341 341 340 340 338 336 329 329 330 331 334 334 335 336 332 337 336 335 335 336 335 335 336 335 336 336 337 336 336 336
341 342 345 347 347 347 347 347 346 347 347 346 345 345 347 348 346 347 348 348 350 350 349 348 348 346 349 348 345 346 342 343 345 348 346 347 346 346 346 345 345 345 346 346 346 346 345 345 344 343 343 343 342 340 341 341 341 340 339 336 330 329 330 331 331 332 332 332 334 336 336 337 336 336 335 335 335 335 334 334 334 334 335 335 334
339 340 342 344 345 345 346 346 346 346 345 344 343 344 344 344 344 344 346 348 348 347 344 346 343 344 344 344 344 342 342 343 345 346 346 346 346 345 345 345 345 345 344 345 345 345 345 345 343 341 340 339 336 336 337 338 338 339 336 330 330 330 330 330 330 330 330 334 332 336 336 336 334 334 334 334 334 333 334 333 334 333 333 332 332
338 338 339 342 345 344 344 345 345 345 344 342 342 342 342 342 343 343 343 343 343 344 342 342 342 342 343 342 341 342 342 342 348 348 347 344 344 346 345 345 345 344 344 342 344 345 345 343 342 339 336 335 333 335 335 334 332 330 329 330 330 329 329 330 330 330 332 336 332 337 336 336 335 334 334 333 333 333 333 333 332 332 332 332 332
336 338 339 340 342 343 344 344 345 344 344 343 343 343 344 344 344 343 342 341 341 340 340 339 340 342 343 341 340 342 341 342 343 343 342 341 340 341 340 337 336 334 338 330 330 332 331 330 331 332 331 332 332 332 331 330 330 329 329 330 330 329 330 331 331 331 331 333 336 338 337 337 335 335 335 334 333 333 333 333 332 331 330 331 331
337 337 336 339 341 343 343 344 344 344 343 343 344 345 345 344 344 343 342 342 342 340 338 339 340 342 342 341 341 340 340 340 341 341 341 339 339 337 335 334 332 331 332 329 328 326 326 327 327 328 329 331 331 331 331 330 329 329 329 329 329 329 329 330 331 331 332 334 337 337 338 335 336 336 335 334 334 334 332 332 331 329 329 331 331
336 335 337 337 340 341 343 343 342 342 343 344 345 345 344 345 345 344 344 343 343 341 339 339 340 341 342 342 340 340 341 341 341 341 340 339 337 336 335 334 332 330 330 328 327 325 325 325 325 325 327 330 332 331 330 330 329 329 329 329 329 329 329 329 331 332 332 334 336 336 337 337 337 335 335 334 333 332 332 332 332 332 331 331 331
335 335 335 336 338 340 342 341 339 340 340 343 344 343 343 344 344 345 343 344 343 341 340 339 341 340 341 341 341 340 340 339 340 340 340 338 337 335 334 333 332 330 330 328 326 324 323 324 325 325 327 327 330 331 330 330 330 330 329 329 329 329 329 330 331 332 332 333 335 336 338 339 336 334 334 333 332 333 332 333 332 331 330 330 331
333 334 336 336 337 339 340 338 337 340 340 342 342 342 343 343 344 343 341 345 341 340 339 340 337 337 337 338 339 337 339 339 339 339 340 338 336 335 334 333 331 331 330 328 326 324 323 325 325 326 325 326 329 331 330 330 330 330 329 329 329 329 329 330 331 332 332 333 334 336 336 336 337 335 333 332 333 334 334 334 334 333 332 330 329
333 335 336 336 335 338 337 336 337 339 340 341 341 340 341 342 342 342 342 343 339 338 337 335 333 333 332 334 336 337 337 339 339 339 338 337 337 336 333 332 332 330 329 328 326 325 324 325 326 326 326 327 329 331 330 330 330 330 329 329 329 330 330 331 332 332 331 332 334 336 336 337 338 338 337 334 334 335 334 334 333 330 329 331 331
333 334 335 336 336 336 337 339 340 341 341 340 339 339 340 341 341 341 342 340 338 336 334 332 332 332 333 334 336 338 337 338 339 338 337 336 336 335 333 332 331 330 329 328 327 326 324 325 326 325 325 327 328 330 330 330 330 330 331 329 329 330 331 332 332 332 331 331 332 335 335 334 336 337 338 337 335 334 332 332 332 332 332 332 330
331 333 334 335 334 335 337 339 340 340 340 339 339 338 338 339 341 341 339 336 335 334 333 333 333 332 333 333 334 336 338 337 338 338 337 336 335 335 334 332 331 331 330 328 328 328 326 327 327 326 327 328 328 329 330 330 329 330 330 329 330 331 332 332 332 331 331 331 331 332 335 338 337 338 338 337 337 334 332 332 331 332 333 333 331
330 333 334 335 334 335 337 339 340 339 339 337 337 337 337 338 339 339 336 335 334 333 332 332 333 333 333 333 334 335 336 335 336 337 337 335 335 334 333 332 332 331 330 328 329 328 330 327 327 328 328 329 329 328 330 330 330 329 330 330 331 331 332 332 332 331 331 330 331 332 333 336 337 337 336 335 337 336 333 333 333 334 333 331 330
329 332 334 333 335 335 337 338 339 338 338 337 336 335 335 336 337 337 336 334 333 332 333 333 333 333 333 333 334 335 335 335 336 336 336 334 333 333 333 332 331 330 329 328 329 329 328 327 327 329 330 328 327 328 329 329 331 331 330 330 331 332 333 331 331 330 330 330 330 331 331 332 332 333 334 333 337 337 337 334 335 334 331 330 331
329 330 332 334 335 335 337 337 339 338 338 336 336 334 334 335 335 335 335 334 332 332 332 333 333 333 333 333 334 334 335 335 336 336 333 333 332 331 331 332 330 330 330 329 329 329 328 327 328 327 326 327 328 329 330 330 331 330 331 331 331 332 332 330 330 330 330 330 331 330 330 331 331 332 333 334 339 338 337 336 333 332 332 332 331
329 330 333 335 335 335 337 337 338 336 335 335 334 333 333 332 333 334 333 333 332 332 333 333 333 333 333 333 333 334 335 335 335 335 335 332 332 331 331 331 331 330 330 330 330 329 327 327 328 328 326 327 328 328 331 331 332 331 331 332 332 332 331 330 330 330 329 330 330 330 330 330 330 334 336 332 334 336 336 335 335 335 332 331 330
329 329 331 334 335 335 336 337 336 335 334 333 331 331 331 331 330 331 331 333 332 331 332 333 333 333 333 333 333 334 335 334 335 334 334 332 332 331 330 331 332 331 331 330 330 329 328 327 327 329 329 327 328 328 330 331 331 331 331 331 332 332 331 329 329 329 329 330 329 329 330 330 334 337 331 332 332 335 336 335 333 335 335 332 332
329 329 332 334 334 335 336 336 335 335 333 331 330 329 330 330 329 330 331 331 332 334 334 334 333 333 333 333 333 334 335 334 334 334 333 333 332 330 330 331 331 331 331 330 329 329 328 328 326 326 329 329 328 328 329 331 332 331 331 331 331 331 331 330 330 330 329 329 329 329 330 331 331 330 330 331 332 333 335 336 335 336 336 336 333
332 332 334 335 336 336 335 335 334 333 331 330 329 328 327 327 327 328 329 331 333 335 335 334 334 334 334 333 333 334 335 333 334 334 332 333 331 331 331 331 332 331 330 329 328 328 328 327 328 326 328 330 330 330 330 331 331 331 331 331 332 331 331 331 330 329 329 328 330 330 330 330 331 330 330 330 330 332 332 332 332 332 335 335 335
334 334 334 335 335 335 334 333 333 333 331 330 330 328 327 328 328 328 329 330 332 333 334 335 335 334 334 335 334 333 334 334 332 333 332 332 331 331 331 331 331 331 329 328 327 327 327 327 327 327 328 330 332 332 332 331 330 329 328 329 330 330 330 330 329 329 329 330 331 329 328 329 329 330 330 330 330 331 331 332 334 332 334 333 333
334 334 334 334 334 334 333 331 332 332 330 329 329 328 327 327 328 328 328 330 331 333 333 334 334 334 334 335 333 334 334 334 334 332 331 333 332 331 331 330 331 331 330 329 328 328 329 328 327 329 328 328 328 331 331 332 328 326 327 327 327 330 330 329 327 327 328 329 330 330 328 328 328 329 328 329 330 330 330 331 331 331 332 333 332
332 333 333 334 334 334 333 332 332 331 330 330 330 328 327 326 325 327 328 330 331 331 331 333 334 334 333 333 333 333 333 333 333 332 332 332 331 331 331 330 331 331 330 330 329 330 329 328 327 326 329 328 327 330 330 330 325 324 322 322 324 327 328 328 328 329 328 329 329 329 329 328 328 327 328 329 329 329 329 329 329 330 330 331 331
332 333 333 334 333 332 332 332 331 330 329 330 329 327 325 324 323 322 328 327 330 332 332 332 334 332 332 333 332 331 332 333 333 333 333 332 331 331 331 331 330 331 329 329 329 328 328 328 327 326 325 327 328 330 329 328 324 326 325 322 318 318 322 325 328 329 329 329 330 329 329 328 327 326 328 328 328 329 329 329 329 329 329 330 331
331 331 331 332 333 332 332 332 331 331 330 330 329 327 328 327 326 324 325 326 325 330 330 332 332 330 330 332 332 332 332 332 333 333 333 332 331 331 331 330 330 331 330 329 328 327 328 327 327 327 327 324 326 327 329 326 328 324 318 319 319 319 315 318 322 325 330 329 330 329 329 329 329 328 329 328 327 326 328 329 329 329 329 328 330
328 329 330 331 332 332 332 332 332 332 331 331 328 327 328 326 327 328 329 329 329 329 329 330 331 331 330 330 330 332 332 332 333 333 333 331 331 331 331 330 329 330 330 329 328 328 328 328 327 326 327 326 325 326 327 327 328 328 322 318 316 316 316 319 321 322 327 327 328 329 329 329 328 327 328 327 326 326 327 328 328 328 328 328 329
326 328 329 330 332 333 332 332 331 332 332 330 328 327 326 326 325 326 326 326 326 326 326 327 329 328 328 329 330 332 332 332 333 333 333 332 331 331 330 329 329 330 330 329 329 328 328 327 327 327 327 328 327 326 324 327 328 327 323 321 322 318 316 320 319 313 324 327 327 328 329 329 328 327 326 326 327 327 328 329 328 328 328 328 329
325 327 329 329 329 331 332 332 331 330 329 328 328 327 325 326 325 325 325 325 324 326 329 330 331 330 330 329 329 330 331 331 331 333 332 333 331 330 330 330 330 329 330 329 328 328 328 328 328 327 327 327 328 325 324 324 326 325 326 324 324 320 323 321 316 317 315 321 325 325 326 328 327 327 326 326 327 327 329 329 329 328 328 328 328
324 325 327 328 328 329 331 331 331 330 328 328 327 326 325 325 325 324 325 325 325 326 329 329 327 329 329 329 329 329 331 332 331 332 332 332 331 330 330 329 328 329 330 328 328 328 328 328 328 327 326 327 328 326 325 325 323 323 324 323 322 322 322 320 322 319 318 316 318 324 326 326 326 327 328 327 327 327 328 328 328 328 328 327 328
322 324 323 322 327 329 330 331 330 329 328 327 326 325 326 325 325 325 323 324 325 327 328 328 327 328 327 327 328 329 330 331 332 332 332 332 331 330 329 329 328 328 330 328 328 328 328 327 326 325 326 326 327 326 326 324 325 323 321 319 320 320 320 320 321 319 319 316 316 319 320 324 325 326 327 328 327 327 328 328 330 329 327 326 326
316 319 322 323 323 326 329 329 328 328 328 327 327 325 325 326 325 324 323 323 325 326 327 326 326 328 325 326 327 328 329 329 331 332 331 331 331 330 329 329 328 329 329 328 328 328 327 327 327 326 326 326 326 326 326 325 325 323 324 320 318 318 318 319 319 318 318 318 316 317 320 319 319 322 326 325 325 325 325 327 329 328 327 327 326
317 317 318 320 320 324 326 328 329 328 327 327 326 325 324 325 325 324 324 323 324 325 325 325 326 327 326 326 326 327 327 328 330 330 330 330 330 331 330 329 329 330 329 328 328 328 327 327 327 327 326 326 326 326 325 325 324 324 323 322 322 321 320 317 318 318 317 316 318 318 319 321 321 319 323 325 325 324 325 326 327 327 326 326 325
Wind_Speed
9 11 10 14 14 15 15 15 15 16 16 16 17 17 17 18 19 19 19 20 20 20 20 20 20 20 21 22 22 22 22 20 21 20 19 19 20 20 19 19 18 16 16 17 16 16 17 18 17 18 18 19 18 18 18 17 17 17 17 18 17 17 17 16 16 17 17 17 18 17 17 17 17 17 18 18 17 17 17 17 14 10 8 11 17
14 10 9 11 15 14 15 15 15 15 16 16 16 17 17 18 19 19 20 20 19 20 20 20 21 21 21 21 22 22 21 21 21 21 19 19 20 20 20 19 18 17 17 17 17 18 19 19 17 18 19 18 19 19 19 18 18 17 17 17 17 16 16 16 16 16 17 16 16 17 18 17 17 17 17 18 17 17 15 16 17 9 7 16 18
10 10 9 11 16 16 16 16 17 17 16 17 17 16 17 18 20 20 20 20 20 20 20 20 20 21 21 21 21 22 21 20 20 19 20 20 21 21 20 19 18 18 18 18 18 19 19 19 17 17 18 19 18 19 18 19 18 17 17 17 16 16 16 16 16 16 16 16 15 15 15 17 17 17 18 18 18 17 16 16 16 13 10 17 15
11 9 9 13 16 16 16 16 16 16 17 16 17 17 16 17 19 20 20 20 20 20 20 20 20 20 21 20 21 20 21 20 21 20 20 20 21 21 21 20 19 18 18 18 18 19 20 20 19 19 19 19 19 19 18 18 18 17 16 16 16 15 15 15 16 15 15 15 14 11 6 7 11 16 16 17 17 17 16 16 17 17 17 18 17
11 9 9 10 11 14 15 16 17 18 17 17 16 17 17 17 17 18 18 19 20 20 20 20 20 20 20 20 20 20 20 19 20 20 19 19 19 20 20 20 19 18 18 18 18 18 19 20 19 19 19 18 18 18 18 17 17 16 15 15 14 14 14 15 15 16 15 15 13 8 7 7 6 14 14 15 16 15 15 15 16 17 18 18 18
10 9 9 9 10 12 15 15 16 18 18 18 18 17 17 16 17 18 18 18 19 19 19 20 19 19 19 20 20 21 22 21 20 20 20 19 17 18 20 20 19 18 18 18 18 18 18 17 18 18 18 17 16 16 15 14 12 12 13 14 14 14 14 15 15 15 14 13 11 6 6 6 6 7 15 15 15 15 15 15 16 17 16 17 17
10 7 8 9 8 12 16 16 16 18 18 18 18 17 17 16 16 16 17 17 17 18 18 19 19 19 19 20 19 20 20 22 21 20 18 16 16 17 19 20 19 18 17 18 18 17 17 17 18 17 16 16 15 14 13 11 10 9 11 14 13 14 14 14 15 15 13 7 5 5 5 6 5 6 15 14 14 15 15 14 15 16 16 16 17
7 7 8 8 8 14 17 16 17 18 18 18 18 18 17 17 16 15 16 17 17 17 18 18 18 19 18 18 19 19 19 20 20 20 18 16 13 14 16 19 18 17 17 16 16 16 16 16 16 16 16 15 14 13 12 11 9 8 11 13 14 14 15 14 14 15 14 6 6 5 5 5 6 6 14 16 16 15 15 15 14 15 15 16 15
8 8 8 8 8 18 16 16 16 17 18 18 17 18 17 17 16 16 16 16 16 16 17 17 18 18 18 17 18 19 19 19 20 19 17 17 16 14 13 15 16 16 15 15 15 14 15 16 15 15 15 14 12 12 11 11 11 10 10 14 15 14 15 14 14 12 7 5 6 5 6 5 6 5 12 14 15 16 15 11 11 15 15 15 14
8 7 7 7 7 17 16 15 15 17 17 17 17 18 18 16 16 16 15 15 15 15 16 16 17 18 17 17 17 18 18 19 19 19 17 16 17 16 16 16 17 16 16 16 15 15 14 14 14 14 13 13 12 12 12 12 14 14 14 15 15 14 14 13 12 8 6 6 6 6 6 6 5 6 13 15 15 16 14 14 12 12 12 14 16
8 7 6 6 9 15 15 15 16 17 18 17 17 17 17 17 17 16 16 16 16 15 15 15 16 16 16 16 17 17 17 18 18 18 17 16 16 16 17 17 17 17 16 16 15 15 15 14 14 13 13 12 12 12 13 14 15 16 16 15 14 14 13 12 9 5 5 6 6 5 6 6 3 6 14 14 15 15 15 14 13 13 15 17 16
8 7 6 5 14 14 14 14 16 17 18 17 17 17 16 16 16 16 16 16 16 16 15 14 14 15 16 15 16 15 17 17 18 17 16 15 15 15 15 16 16 16 16 16 15 15 15 14 14 13 13 12 12 13 14 14 14 15 14 14 14 13 13 12 6 5 6 6 6 5 5 7 7 10 15 16 15 14 14 14 13 13 14 15 16
8 7 6 5 8 13 12 14 16 17 17 17 16 16 15 15 15 15 14 14 15 15 16 15 14 13 15 15 14 15 15 16 16 16 16 14 14 13 13 13 14 15 16 16 15 15 15 15 14 14 13 13 12 13 14 14 14 14 14 14 14 14 13 12 6 6 6 6 5 5 6 5 8 14 14 14 15 15 15 14 14 13 13 14 14
8 7 6 7 7 14 12 13 14 16 16 16 14 14 15 15 15 14 12 13 13 13 13 13 13 12 13 14 12 13 13 14 14 15 15 14 13 12 11 11 11 12 13 14 14 15 15 15 14 14 13 13 12 14 15 14 13 13 14 14 13 13 13 10 8 6 6 6 5 5 5 5 6 12 16 15 15 15 15 15 14 14 14 14 14
8 7 7 7 7 8 15 11 12 14 14 14 13 13 13 13 13 12 12 12 13 12 13 13 12 13 14 14 13 12 13 12 12 14 15 14 12 11 10 9 10 11 12 13 14 15 15 14 13 13 12 11 12 13 14 14 14 14 13 13 13 13 12 6 5 5 5 5 5 5 3 4 12 11 14 15 15 15 15 14 14 14 14 14 13
7 7 7 7 7 7 8 11 11 12 13 13 13 12 12 12 12 12 12 11 12 11 12 13 14 12 13 13 13 12 12 10 9 12 13 13 12 10 8 8 9 11 12 13 14 14 14 13 12 12 12 11 11 13 14 14 14 13 13 13 13 13 12 7 6 5 5 5 5 4 5 6 12 12 14 15 14 14 14 13 14 14 14 14 14
8 8 7 8 7 7 7 8 9 12 11 11 11 11 10 11 11 11 11 11 11 11 12 13 13 13 13 14 14 13 11 11 10 10 12 11 11 9 8 7 8 10 11 12 13 13 14 13 12 12 11 11 12 12 13 14 14 13 12 13 13 13 12 8 6 5 5 5 4 5 5 4 11 11 14 14 13 14 14 14 14 14 13 13 13
9 8 8 7 7 7 6 7 7 7 5 9 9 10 10 10 11 11 11 11 11 11 11 10 11 11 12 13 14 13 12 11 11 10 11 10 9 9 8 7 8 9 10 11 12 13 13 13 12 11 11 12 12 13 13 13 13 13 12 12 13 13 12 9 5 5 5 5 5 4 3 7 10 12 13 13 14 14 15 14 14 14 14 14 14
6 9 8 8 8 6 7 6 6 6 5 5 4 7 11 10 10 10 11 11 11 11 11 10 12 13 14 14 13 14 12 13 12 12 12 9 9 8 7 7 8 9 10 11 11 12 12 12 12 10 11 12 13 14 13 12 12 12 13 12 13 12 11 6 5 5 5 4 5 5 5 8 6 10 12 13 14 14 13 14 15 16 15 14 14
4 6 8 8 7 7 6 6 6 6 5 5 6 5 9 10 11 12 13 11 11 11 12 12 12 13 13 12 12 10 10 9 14 10 13 10 7 6 7 7 8 9 9 9 10 11 11 11 11 11 11 12 14 14 13 13 12 12 12 12 12 10 5 5 6 6 5 4 4 4 8 8 9 9 11 12 14 14 14 14 14 15 14 14 13
4 5 6 8 8 8 8 6 7 7 6 6 5 6 8 11 9 11 12 11 11 13 14 14 12 12 12 11 8 5 4 5 7 6 11 7 7 7 6 7 7 8 9 9 9 10 10 10 12 13 11 10 14 15 13 13 12 12 12 12 11 6 4 5 5 5 4 4 4 3 9 9 9 9 9 10 10 11 11 11 12 12 13 13 13
6 5 6 7 7 7 7 8 6 7 6 5 4 4 5 8 6 6 6 8 9 9 8 7 8 5 11 8 6 5 4 4 5 8 4 7 7 8 6 6 7 7 8 8 9 9 9 11 12 12 12 10 13 9 9 11 12 11 11 12 7 5 4 4 5 4 4 3 1 4 10 9 9 9 9 9 9 9 10 10 10 11 12 13 12
6 5 4 7 7 6 8 7 7 6 7 6 5 5 6 5 5 5 5 7 7 6 3 6 4 5 5 5 5 5 5 4 4 6 5 9 8 8 6 6 6 6 6 7 8 9 9 11 12 12 11 10 8 7 7 6 6 11 9 6 5 5 4 4 4 4 4 3 4 8 9 9 7 8 8 9 9 10 10 10 9 9 11 11 11
6 4 5 5 7 6 7 7 7 7 7 6 5 5 4 4 5 5 5 5 4 5 4 4 4 4 5 5 5 5 5 5 9 12 9 4 5 7 7 6 6 5 5 4 6 9 11 11 10 11 8 5 6 6 6 6 6 5 5 5 4 5 4 4 3 3 3 4 4 8 9 10 8 8 8 8 8 9 9 9 9 9 10 11 11
4 5 4 5 6 7 7 8 8 8 7 6 6 5 5 5 5 5 5 5 5 4 5 4 4 5 5 4 4 4 4 4 4 4 4 5 3 5 3 2 3 4 5 4 4 4 5 5 5 6 6 6 6 6 6 6 6 6 5 5 4 4 4 3 3 3 3 3 4 8 8 8 8 9 8 7 7 8 9 9 9 8 9 9 11
4 6 4 7 4 9 9 7 8 7 7 6 6 6 7 6 5 5 5 4 4 4 4 4 5 5 4 5 4 5 3 3 4 5 5 4 3 5 4 1 2 4 3 4 4 4 4 5 5 6 5 5 6 5 5 6 6 6 5 5 5 5 4 3 3 3 3 4 5 10 8 8 8 9 8 7 7 9 9 9 9 8 8 10 10
4 5 3 5 5 4 8 6 6 5 6 6 6 5 5 5 5 5 5 4 4 4 4 4 4 5 4 4 4 5 4 3 4 4 4 5 5 5 4 3 3 3 3 4 3 3 4 5 5 5 5 6 6 5 5 5 6 7 6 5 5 4 4 3 3 3 3 4 5 9 6 6 7 8 7 7 7 7 8 8 9 8 8 8 10
5 6 5 5 5 5 5 7 4 5 4 6 6 5 6 5 5 6 4 6 6 5 4 4 4 3 4 5 3 3 4 4 4 5 4 4 4 5 4 4 3 2 3 4 3 2 4 5 5 5 5 5 6 6 5 5 5 6 6 6 5 4 4 3 3 3 3 3 4 6 4 8 9 7 6 6 7 7 7 8 9 9 8 8 9
7 6 6 5 5 5 5 8 5 6 6 6 7 5 5 5 6 5 4 7 5 5 5 4 4 2 3 2 3 5 3 3 5 5 5 3 3 4 4 4 2 2 2 3 2 2 3 4 4 5 5 5 5 6 5 5 5 5 6 6 5 5 4 4 4 3 3 3 3 5 9 10 7 7 7 5 7 7 7 7 8 9 10 9 8
8 7 7 7 5 3 4 5 4 5 5 6 5 5 5 6 6 6 5 5 5 5 6 5 4 3 4 6 5 5 5 5 5 5 5 3 3 4 3 4 3 2 2 3 2 2 3 4 4 5 5 5 5 5 5 5 5 5 5 6 5 5 4 4 4 4 3 3 3 4 9 7 5 5 7 6 7 7 7 8 8 8 7 8 9
7 8 7 6 5 4 3 3 4 5 6 7 5 5 5 6 5 6 6 6 5 5 5 6 5 6 6 7 7 6 6 5 5 5 6 3 3 4 4 3 3 3 2 2 2 2 2 3 4 5 5 5 5 4 5 5 5 5 5 5 5 4 4 3 4 4 4 4 3 4 5 8 5 4 3 4 5 6 6 6 6 7 7 8 7
9 9 8 5 5 5 5 6 7 8 7 6 6 5 5 6 9 6 6 6 6 6 5 7 7 5 5 7 6 6 7 6 6 6 6 5 5 5 4 4 4 3 2 2 2 1 3 3 4 5 5 5 5 4 4 5 5 5 5 5 5 5 4 4 4 4 4 4 4 4 4 4 4 4 4 3 4 5 6 6 5 7 7 7 7
6 9 9 7 7 7 8 8 9 8 7 5 5 6 6 6 6 6 5 6 6 5 6 6 7 5 5 5 6 6 5 6 6 6 6 5 5 5 5 5 4 3 2 3 2 3 4 4 4 5 5 6 6 5 5 5 6 6 5 4 5 6 5 4 4 4 4 4 4 4 4 4 4 5 5 6 5 5 5 5 5 7 7 5 6
8 6 7 8 7 6 6 7 8 7 7 6 6 6 6 5 4 6 7 6 5 5 4 4 5 5 5 5 5 5 5 5 6 5 4 5 5 6 6 5 4 3 3 3 3 3 4 4 4 5 5 6 6 6 7 6 5 5 5 5 5 5 5 4 4 4 4 4 4 4 4 4 4 3 3 5 6 5 5 6 6 6 5 5 6
5 6 10 9 9 8 7 6 7 6 7 7 7 6 6 5 5 5 6 5 5 4 4 5 5 6 5 6 5 5 5 5 5 5 6 5 5 5 5 5 4 4 4 4 4 3 4 4 5 6 5 5 6 5 6 6 6 6 5 5 6 5 5 5 4 4 4 4 4 4 4 4 4 3 3 3 3 5 5 5 6 5 5 5 5
7 6 7 8 9 8 7 7 7 8 8 8 6 6 6 4 5 4 4 2 1 3 5 6 6 5 5 5 5 5 4 4 5 5 5 3 3 5 5 4 5 4 4 4 4 4 4 4 3 7 7 6 6 5 5 6 6 6 6 5 6 5 5 5 4 4 3 4 4 4 4 4 3 3 3 3 2 3 5 6 5 5 5 5 5
4 6 6 8 8 7 8 6 6 7 7 5 5 5 6 5 4 5 6 5 6 5 4 3 3 5 4 4 4 4 4 5 5 5 5 7 5 4 3 3 4 5 4 4 4 5 5 5 3 1 7 6 6 7 7 7 7 6 6 7 6 6 5 4 5 4 4 4 4 3 4 4 3 4 3 3 2 2 5 5 4 4 3 5 5
3 3 2 6 6 6 4 3 2 3 4 3 3 4 4 4 4 4 5 4 2 3 3 3 4 5 5 6 4 5 4 5 5 5 4 5 4 4 2 3 3 4 4 4 4 4 5 6 5 3 4 7 6 7 8 8 6 6 6 7 6 5 4 4 4 4 4 4 4 4 3 3 3 3 3 3 3 3 3 4 5 4 5 3 3
4 3 3 3 2 3 2 2 2 2 3 3 2 2 3 3 4 4 5 5 4 3 3 3 4 5 5 6 6 4 3 3 5 5 5 4 3 3 3 3 1 4 5 5 5 5 5 5 7 5 3 4 7 7 8 8 7 7 6 7 6 5 4 4 4 4 3 4 4 4 3 3 3 3 3 3 3 3 3 3 3 2 2 5 6
6 6 6 6 5 4 3 3 3 4 4 3 2 3 3 3 3 2 2 2 2 2 3 3 3 4 2 3 3 1 0 1 2 4 5 5 5 4 4 4 4 4 6 6 6 6 7 7 6 8 8 6 4 6 7 7 7 6 6 6 5 6 6 5 4 3 3 3 4 3 3 2 3 3 3 3 3 3 3 3 3 2 2 3 4
7 8 7 7 6 6 5 5 5 4 4 4 3 2 1 1 2 2 1 1 1 1 2 3 3 2 3 3 2 3 4 4 3 3 4 6 5 6 5 5 5 6 7 7 7 7 6 7 7 5 10 7 5 6 6 7 8 5 5 5 5 4 5 6 4 3 3 3 3 3 2 2 3 3 2 2 3 3 3 3 3 3 2 2 2
5 6 6 5 4 4 5 5 4 5 4 4 3 1 4 3 3 1 2 2 3 4 4 4 4 4 4 1 2 2 1 3 5 4 5 4 5 6 6 6 6 7 4 4 6 6 6 6 7 6 3 8 6 7 7 7 4 5 7 5 3 4 5 5 5 5 3 4 2 3 2 1 2 2 2 3 3 3 3 2 3 3 2 2 1
3 3 2 3 3 2 1 2 3 3 2 2 3 4 3 1 1 3 4 1 2 3 3 1 3 6 6 7 5 4 4 3 4 5 5 7 7 6 7 6 6 5 5 6 7 7 7 8 8 9 7 2 5 6 8 3 6 5 5 4 3 2 1 3 3 5 4 3 3 3 3 2 2 2 1 3 3 2 2 2 3 3 2 2 1
4 4 3 3 2 2 2 3 4 3 2 2 5 6 8 7 4 3 2 2 2 2 2 2 5 7 6 3 5 5 6 5 4 4 4 5 6 6 5 6 7 5 7 7 7 7 7 7 6 8 10 9 5 6 4 3 6 10 7 2 3 2 3 3 3 2 4 5 5 4 3 3 3 4 2 3 2 2 2 2 3 3 3 3 2
4 4 2 2 1 1 2 3 4 5 5 5 5 2 2 5 6 7 5 2 1 1 3 4 5 5 6 5 6 5 6 6 5 5 5 6 6 5 5 5 6 5 5 7 8 8 8 8 9 9 10 10 9 5 4 4 7 1 5 5 3 2 2 2 5 1 3 3 3 4 4 4 4 3 2 2 2 1 2 2 2 3 3 3 3
4 3 3 2 1 0 2 3 3 3 4 6 7 7 6 5 7 6 5 4 3 3 5 6 5 6 6 3 4 6 6 6 6 7 6 5 5 4 3 4 5 6 6 6 6 6 7 8 9 9 8 8 9 8 6 4 6 2 1 1 3 5 6 5 5 4 2 1 3 3 4 3 4 3 2 1 2 2 2 2 2 3 3 3 3
2 2 3 2 2 1 1 4 4 3 4 6 8 6 4 1 6 9 10 9 8 8 8 6 3 3 4 6 5 4 5 6 6 5 6 5 5 5 6 6 5 5 4 5 6 8 8 8 7 7 7 7 6 10 9 7 4 3 1 1 2 0 6 8 4 4 4 2 4 3 3 4 3 3 3 3 3 3 2 2 2 3 3 2 3
2 1 3 3 2 1 2 3 4 4 5 6 8 7 5 7 8 10 10 10 11 9 6 4 5 2 2 3 5 5 7 8 8 6 6 6 6 6 7 6 5 5 4 6 7 6 5 5 6 6 6 7 9 10 9 8 10 6 3 1 2 3 4 4 5 5 5 5 4 2 2 4 4 3 3 3 3 3 3 2 2 2 2 2 2
2 1 1 2 3 3 2 3 5 6 7 9 8 5 6 10 10 8 7 7 7 6 5 6 5 6 5 6 8 7 7 6 6 7 7 7 6 7 7 6 6 6 4 4 3 5 7 8 7 7 7 7 7 6 8 9 7 6 5 2 4 4 3 3 5 4 4 5 3 5 3 2 3 3 3 3 3 2 3 2 2 3 2 2 1
1 1 1 0 2 3 5 5 5 7 9 11 10 6 7 8 9 10 11 8 7 6 7 7 7 8 8 9 6 5 5 6 6 8 7 8 8 7 7 7 7 5 4 4 4 5 5 6 8 8 7 7 6 7 9 7 6 5 5 5 4 3 4 3 2 4 3 2 4 7 5 5 4 2 3 3 3 2 2 2 2 3 2 2 2
5 5 4 1 3 5 5 7 8 9 11 11 9 8 6 7 9 10 11 9 7 8 8 8 8 9 8 8 6 5 5 6 8 7 8 8 8 7 8 7 5 5 5 5 6 6 6 7 6 6 6 7 7 6 6 6 5 5 6 6 6 8 6 5 6 5 4 3 4 5 6 5 4 4 2 2 3 3 3 2 2 2 2 2 2
Wind_Direction
164 153 144 144 138 135 130 127 123 120 118 116 119 121 121 120 117 116 116 116 116 117 117 118 118 119 119 121 121 121 118 116 117 119 119 117 113 111 112 110 109 111 107 102 99 98 95 94 95 96 97 96 97 96 95 93 91 88 87 85 82 81 82 80 80 83 83 79 79 78 78 78 77 78 76 71 71 71 70 69 62 54 61 64 66
157 150 140 141 136 133 131 131 127 123 119 117 119 121 122 120 119 118 118 118 119 120 121 121 121 121 122 123 123 120 118 120 122 122 121 116 113 114 114 111 113 111 105 101 102 100 99 98 96 92 94 97 97 96 93 90 88 85 83 81 80 78 76 74 74 71 73 77 79 82 81 78 78 77 76 75 72 70 69 72 73 60 57 63 64
136 138 138 140 138 134 134 134 131 127 122 120 121 120 121 122 121 121 121 122 124 124 123 124 124 124 124 123 123 122 122 121 120 120 120 118 117 116 116 115 114 113 108 105 102 101 102 100 97 97 98 98 98 95 91 89 90 88 85 81 78 78 77 75 74 73 69 65 61 60 66 76 77 76 75 73 71 67 67 70 76 76 68 71 65
136 134 136 141 135 134 135 134 131 127 124 121 121 123 123 123 123 123 123 125 126 126 126 126 125 125 125 124 123 123 122 122 122 122 122 120 119 120 119 119 116 110 102 103 100 101 102 100 97 99 99 97 93 90 88 83 82 82 81 81 80 81 81 81 79 77 73 68 61 53 46 41 64 72 72 71 68 66 65 66 66 69 69 71 76
135 137 142 135 135 134 134 135 133 131 127 124 123 123 124 125 124 124 126 127 127 127 127 126 126 125 124 124 124 123 121 120 122 123 122 120 120 122 123 118 117 110 108 102 101 101 103 105 107 104 100 94 90 89 87 85 83 81 82 87 88 88 86 84 82 79 74 68 61 54 42 44 61 71 74 76 73 67 65 65 67 63 59 61 63
138 139 138 135 136 136 134 134 134 131 130 127 126 125 125 127 127 127 128 127 128 128 128 127 126 125 125 127 127 125 124 123 122 123 125 125 126 127 125 123 113 112 110 107 103 100 98 96 97 96 93 92 92 88 85 85 86 87 86 89 90 90 89 87 85 80 73 62 56 51 44 45 49 73 80 77 73 69 66 67 69 63 60 60 61
134 133 133 134 136 137 135 135 135 133 131 129 128 126 127 129 130 128 128 128 127 127 128 128 127 127 127 128 126 124 123 122 122 123 125 126 130 129 127 124 116 117 111 111 105 103 102 102 99 95 90 86 82 77 73 73 79 94 105 100 97 95 93 91 87 83 72 64 58 52 53 53 54 76 78 79 78 74 70 71 72 63 60 61 61
128 133 133 137 139 140 137 138 140 136 133 131 128 129 129 131 130 127 127 126 127 128 127 127 126 127 129 128 126 123 122 121 121 124 126 126 121 121 130 126 121 113 114 112 109 107 105 102 97 93 88 86 78 72 69 69 74 98 124 117 106 100 98 93 91 90 87 67 55 56 62 54 60 79 82 76 74 73 74 74 74 67 62 61 60
134 135 135 136 143 139 139 140 139 137 134 132 132 131 131 131 131 130 126 127 127 127 127 126 129 130 128 128 127 125 124 122 121 122 123 125 125 122 115 112 111 111 117 115 113 108 105 103 96 96 94 88 84 80 79 80 85 90 120 123 108 104 101 101 96 88 82 65 72 75 80 74 69 82 88 86 83 80 73 57 62 69 67 66 63
132 128 131 133 141 138 142 139 136 136 134 135 133 133 133 132 132 131 129 126 129 127 127 129 128 129 130 130 129 127 124 123 120 119 120 122 125 126 124 122 121 117 120 119 117 113 109 106 105 99 95 89 84 84 86 93 91 91 106 120 108 104 99 92 85 82 76 75 72 84 90 94 85 78 89 88 86 83 82 79 81 79 72 67 68
125 124 121 130 139 139 140 138 136 135 135 136 135 135 136 135 134 132 129 130 131 128 126 128 129 130 130 132 130 127 127 125 122 119 119 122 125 126 124 123 122 122 121 122 121 118 114 110 103 97 92 89 85 86 92 98 97 99 105 110 103 98 91 84 76 63 73 80 76 59 74 76 90 95 92 92 90 85 82 81 76 76 78 71 71
122 116 117 126 143 137 138 138 135 136 137 135 137 137 137 135 134 133 133 134 134 131 128 127 129 132 132 133 131 130 129 126 124 123 123 123 128 128 125 123 121 121 123 124 122 120 118 110 101 96 93 88 86 90 95 97 97 97 97 97 96 94 91 87 76 68 74 71 72 67 67 77 85 97 100 94 91 94 93 86 81 77 75 69 69
114 117 116 129 128 136 136 138 138 138 138 140 141 137 137 135 135 135 136 136 137 134 131 129 130 131 132 131 132 131 127 128 127 127 126 129 130 127 122 117 116 119 121 122 122 118 111 106 103 98 95 90 92 100 104 105 103 103 102 102 100 100 96 88 80 77 70 65 55 60 61 63 81 94 94 96 95 90 86 83 79 78 74 69 68
111 112 117 122 127 139 139 141 141 139 141 143 141 139 140 137 137 138 135 136 137 131 128 127 127 127 128 129 132 130 126 129 131 129 130 131 128 122 118 115 113 113 114 115 113 111 108 107 105 102 99 98 103 112 115 114 111 108 105 104 104 101 94 89 81 69 65 59 55 56 69 89 96 98 94 93 94 93 90 88 86 82 78 72 68
115 114 116 121 135 141 141 142 140 140 143 142 139 141 140 139 140 137 134 135 133 128 129 128 126 128 129 131 132 131 129 131 135 137 133 128 125 120 116 114 112 112 114 114 113 111 108 105 102 100 99 101 106 117 121 119 115 110 109 107 105 99 90 79 76 66 62 57 48 48 33 85 101 101 99 97 90 88 87 86 87 85 81 76 70
109 114 119 122 130 137 135 141 136 140 141 140 140 140 140 137 135 132 133 134 133 132 132 130 130 129 132 131 132 134 135 136 136 132 128 126 124 121 116 112 111 112 115 116 114 111 108 106 105 104 105 105 109 119 125 123 118 116 113 111 107 103 96 91 82 76 73 67 53 35 40 89 95 98 97 94 96 90 86 85 84 80 82 80 76
120 121 120 120 126 125 132 137 141 139 137 135 136 135 134 131 131 132 134 132 130 127 133 132 132 135 134 135 136 136 138 137 129 125 129 130 126 120 115 108 106 111 115 114 115 114 112 110 109 109 108 105 109 122 126 125 120 115 113 111 110 106 101 95 84 84 77 72 61 60 66 57 103 102 102 98 98 104 103 94 88 87 84 81 78
128 129 122 121 118 122 122 129 138 130 130 133 128 127 127 129 130 130 131 130 128 129 128 131 132 134 138 138 138 140 143 141 134 131 131 120 116 113 108 104 102 108 112 115 116 115 113 111 110 109 103 103 111 122 128 123 115 112 113 112 112 110 105 95 84 79 83 80 74 67 51 97 93 98 100 102 100 96 97 95 94 90 86 82 79
130 131 123 121 120 115 113 107 108 110 104 101 112 127 129 129 127 126 128 130 129 131 134 134 140 141 143 143 141 143 147 146 144 135 125 122 120 111 105 102 102 109 112 114 115 114 111 113 111 101 95 102 114 126 126 116 114 116 115 114 112 110 98 88 86 83 73 73 80 88 88 98 110 103 97 97 93 94 96 95 88 84 85 82 78
118 125 142 126 116 114 106 103 103 101 101 98 111 116 130 125 132 131 136 136 138 139 143 144 144 143 143 140 141 139 140 147 143 132 125 118 114 111 112 104 105 108 112 112 114 114 113 112 106 96 99 109 117 123 118 117 118 118 116 115 112 93 76 82 89 90 94 90 79 82 114 109 88 88 96 97 97 98 96 92 90 86 81 78 74
115 121 132 121 122 111 107 107 112 110 109 110 114 126 133 136 132 139 138 145 147 151 153 154 150 149 143 140 126 112 126 133 136 140 132 122 125 128 116 108 104 111 115 118 115 113 115 111 100 100 101 109 120 119 116 118 118 119 119 115 101 83 83 84 96 98 83 74 86 102 113 102 101 93 89 90 95 95 95 97 94 89 86 82 78
105 121 123 122 124 113 112 116 112 118 118 117 122 134 141 137 139 144 145 149 151 154 157 152 149 143 146 139 130 128 110 117 137 137 125 132 131 135 124 111 107 109 115 119 116 116 114 106 99 101 106 103 115 116 117 118 121 121 118 108 94 98 95 99 101 98 88 74 82 126 104 103 106 107 102 103 100 100 94 88 88 88 85 80 78
121 115 121 132 119 120 122 118 127 129 125 129 135 140 142 138 137 134 145 148 155 145 128 149 127 143 129 130 124 119 130 132 125 136 136 141 139 133 131 122 112 106 110 116 117 114 109 100 99 100 101 100 106 115 116 115 118 118 108 99 102 104 106 101 96 96 107 119 97 114 112 106 107 106 103 101 101 97 96 98 92 85 86 89 87
115 105 125 115 125 126 123 132 140 147 144 145 137 132 128 121 128 129 127 128 127 128 123 124 130 126 125 120 126 129 128 138 150 149 143 125 141 128 140 136 121 112 93 74 94 111 104 98 97 94 94 98 111 116 115 110 103 95 102 107 105 111 112 113 99 103 112 115 131 127 122 125 127 110 100 97 99 100 98 94 92 95 101 98 90
110 112 98 116 130 128 138 151 159 157 150 143 142 143 135 133 134 135 131 127 126 124 120 111 126 124 126 119 125 125 126 135 130 122 122 138 147 105 75 37 71 69 77 78 61 65 80 92 79 79 92 108 112 119 121 117 117 115 113 115 114 116 115 112 110 91 84 111 146 126 117 105 103 108 113 115 108 96 90 90 96 96 95 97 100
135 118 139 124 135 148 161 167 158 158 151 144 143 151 150 150 146 140 132 123 121 116 108 119 136 138 136 132 113 109 110 109 125 140 135 128 155 108 101 62 67 90 77 90 71 79 86 97 101 97 97 104 115 119 130 133 129 119 116 118 127 125 122 115 102 102 98 87 111 104 103 119 123 117 114 112 109 112 107 102 89 87 94 104 98
142 127 136 124 154 167 157 153 152 154 143 136 138 151 155 146 145 143 129 121 117 122 121 134 144 147 142 132 128 130 132 144 144 145 156 158 155 126 137 153 163 118 92 95 79 68 93 100 102 107 113 117 122 127 130 128 128 126 119 124 130 125 121 113 108 106 88 93 107 114 122 134 123 117 121 115 112 108 102 104 104 107 104 94 96
134 141 157 157 177 171 160 136 146 134 131 136 143 152 157 142 142 153 129 138 144 152 158 145 136 86 133 130 125 119 148 157 158 161 170 165 149 131 145 145 169 150 101 103 99 60 86 98 113 112 114 126 134 142 143 134 127 127 127 128 130 123 117 112 107 105 99 98 110 133 114 100 99 109 110 125 117 107 110 106 110 108 95 93 88
153 159 171 173 191 171 171 142 149 140 147 154 162 161 147 134 132 137 141 156 162 169 146 108 105 128 83 69 150 158 152 162 167 187 182 174 136 134 147 146 171 211 110 97 114 137 95 102 110 112 116 128 138 139 138 130 128 127 131 133 131 126 119 112 108 106 99 92 104 133 111 112 124 130 125 124 117 121 118 115 111 105 97 93 93
176 167 170 183 179 168 177 151 146 151 157 159 156 149 141 140 138 149 160 155 173 154 123 96 73 118 194 175 211 171 163 178 187 189 188 162 154 151 143 154 178 228 145 126 132 169 137 102 99 103 109 127 135 141 132 128 123 123 131 133 130 122 117 116 113 112 109 97 89 113 113 98 78 98 133 139 134 128 119 106 99 96 100 107 110
175 181 182 182 172 146 121 116 136 156 168 172 158 146 143 145 134 154 160 168 152 136 110 114 156 202 174 168 188 173 168 179 183 173 183 161 169 157 167 155 190 218 190 136 126 183 91 126 128 116 119 122 123 125 124 123 123 123 135 130 123 108 110 107 101 102 95 90 78 90 117 120 101 72 109 141 134 118 108 108 108 109 113 114 103
184 186 185 168 145 151 156 167 173 177 174 157 145 140 134 146 162 167 144 135 135 154 134 146 182 184 189 177 181 174 166 175 184 182 180 168 173 166 165 178 207 215 170 137 150 87 114 97 96 100 109 113 105 92 101 122 126 125 133 124 117 119 124 117 105 96 92 84 87 78 77 88 121 98 72 50 118 124 117 117 118 115 112 111 112
192 183 181 164 163 171 177 183 179 177 159 138 140 145 148 163 159 150 124 140 149 156 157 173 181 187 192 198 185 187 176 163 176 184 184 175 171 164 173 194 201 198 141 145 151 104 98 98 81 101 100 103 105 104 105 114 125 132 121 122 123 127 125 117 105 100 96 96 89 91 72 82 90 101 90 68 54 95 126 121 111 114 117 111 112
176 176 155 171 175 187 188 186 177 162 150 140 148 151 152 148 136 130 141 151 160 163 153 167 175 184 203 197 189 186 185 178 167 173 173 173 173 174 180 195 194 179 141 152 172 133 109 109 123 106 114 117 120 128 126 125 121 125 124 130 127 129 128 118 103 106 111 100 101 87 89 81 85 80 81 85 65 72 90 104 111 120 104 109 109
167 154 168 172 180 187 192 183 169 155 156 155 162 158 155 146 145 138 147 151 164 156 152 170 177 188 197 212 190 182 190 185 168 156 169 186 174 178 186 190 163 147 159 182 169 135 128 136 136 111 102 103 113 122 128 129 137 141 141 138 134 127 125 126 121 101 110 110 89 92 93 89 81 75 70 48 67 88 97 122 119 110 112 117 113
170 152 155 169 183 190 195 185 169 161 158 164 163 156 157 149 143 130 74 130 161 200 188 183 186 188 197 211 199 181 187 191 169 156 159 129 198 198 189 163 154 150 177 181 158 150 134 133 141 139 120 116 116 116 128 134 140 143 145 140 138 132 130 131 127 118 116 101 100 103 98 95 86 103 90 72 71 104 95 83 85 112 125 130 124
125 139 156 167 190 192 199 194 177 163 155 155 146 142 148 161 120 122 164 173 183 201 208 162 186 202 197 219 205 189 186 192 181 161 144 155 203 204 169 157 150 163 178 179 170 152 142 133 121 152 135 132 127 129 135 136 139 147 146 147 146 137 134 137 139 133 124 115 123 111 104 108 127 108 88 93 80 83 111 102 89 75 88 115 131
73 86 128 172 194 191 202 200 146 133 130 134 139 147 140 135 140 139 154 178 189 172 196 178 209 211 201 206 199 194 193 187 176 161 154 158 172 203 149 126 150 166 170 164 163 141 138 140 126 82 134 131 138 141 141 136 138 143 144 143 143 132 129 135 141 138 135 136 128 128 125 115 110 120 108 105 96 93 81 97 86 88 72 62 124
83 94 116 153 180 178 174 192 132 92 97 104 102 104 105 105 98 127 152 157 165 146 155 188 210 229 218 197 197 195 191 175 168 158 152 153 156 190 177 96 135 187 160 152 147 140 137 146 137 114 81 115 138 142 139 136 130 134 140 141 139 127 123 125 125 135 146 143 137 135 136 132 124 130 131 118 115 110 108 107 111 96 78 75 57
124 135 150 163 175 158 154 128 109 117 108 99 118 141 125 137 134 104 122 147 150 164 161 184 183 229 331 20 45 49 25 95 171 164 150 148 158 182 158 119 193 205 168 160 154 154 151 136 134 128 121 113 96 126 131 125 106 103 97 91 99 119 123 113 97 98 136 131 123 124 140 131 136 141 142 133 129 129 125 118 109 97 101 67 46
137 147 161 169 171 173 161 152 133 126 133 147 178 226 106 80 66 131 164 87 154 146 184 174 193 185 95 65 105 150 156 163 192 169 152 168 165 182 158 151 193 213 184 174 158 156 154 142 134 129 129 121 121 124 128 124 116 100 101 104 101 100 108 111 113 102 98 89 130 131 112 122 128 153 156 143 133 138 139 122 111 121 110 119 115
144 147 165 160 158 172 177 157 136 142 151 161 168 82 38 44 54 343 126 147 176 206 205 194 183 124 102 150 194 197 251 198 184 164 138 138 181 182 157 161 192 217 179 138 148 143 142 137 133 112 107 137 139 148 144 132 123 142 140 124 88 86 113 127 135 140 151 139 132 134 136 135 153 150 160 146 145 145 149 136 134 116 125 125 224
52 73 86 135 113 144 119 89 100 111 128 123 85 76 90 55 158 192 159 159 249 224 225 170 124 109 159 207 191 195 193 219 200 182 153 161 192 190 170 158 186 189 149 172 155 153 157 156 155 141 134 86 125 153 157 178 137 126 101 117 146 119 154 102 110 131 140 143 157 157 168 157 195 99 153 143 146 145 145 148 143 144 155 124 182
75 85 102 129 117 128 117 99 100 107 105 109 107 135 167 170 141 139 124 120 208 218 224 143 137 129 157 177 204 189 196 202 188 177 166 176 188 190 165 153 183 203 183 160 160 161 159 160 154 150 144 141 152 163 167 174 150 143 154 207 148 115 134 213 145 117 150 156 161 161 168 173 157 138 180 138 151 139 153 163 161 165 168 175 180
69 60 78 102 80 88 117 129 123 141 151 156 147 201 170 109 104 92 97 69 21 227 218 218 179 168 155 196 218 192 193 194 179 178 178 175 188 185 173 165 179 190 198 170 163 171 172 170 163 158 165 156 160 155 178 185 181 222 136 129 86 186 217 147 133 131 159 156 165 157 176 165 157 155 144 141 117 155 151 149 164 166 178 180 180
71 72 71 61 63 78 116 119 114 143 160 162 179 191 196 147 123 135 153 168 209 203 227 226 200 182 195 186 218 211 205 195 190 184 182 172 172 177 164 172 188 190 200 180 154 153 172 170 177 169 167 172 156 160 163 209 200 119 51 13 157 176 169 168 153 192 90 142 163 165 163 151 149 152 159 182 164 186 155 155 160 177 186 179 176
97 104 104 80 54 65 121 158 156 154 161 185 199 201 175 95 169 163 176 186 191 202 196 190 178 160 182 192 201 194 201 204 201 187 178 168 162 168 181 186 195 192 196 167 165 173 174 179 162 173 175 154 159 166 169 177 180 251 147 51 70 231 147 142 171 116 158 170 162 140 141 149 146 148 155 174 181 159 152 151 158 173 192 189 167
54 52 143 171 169 146 131 167 176 174 204 209 209 194 165 179 211 201 182 182 193 207 186 139 96 132 208 208 220 197 202 200 194 191 176 175 172 176 177 175 176 198 188 184 181 170 161 164 170 167 150 167 170 170 170 174 181 186 164 191 64 100 89 69 140 157 150 160 158 112 125 150 140 151 157 162 168 174 148 144 153 154 157 153 157
28 52 188 208 198 186 167 166 183 188 212 223 221 189 168 197 208 225 224 200 185 189 130 133 155 182 184 212 210 204 199 200 200 196 188 181 180 184 182 184 188 182 170 182 195 169 171 165 162 161 170 171 176 167 165 180 187 176 142 79 87 100 84 63 121 91 138 161 171 177 146 130 129 147 154 155 168 160 159 161 181 145 138 134 140
312 343 9 314 254 227 199 189 196 206 218 222 225 198 190 206 209 213 223 211 180 166 147 153 168 180 187 216 206 190 187 188 187 192 184 188 182 177 181 194 195 166 166 183 173 178 178 177 176 176 172 163 163 166 179 176 182 149 158 144 132 117 78 80 86 107 67 112 166 181 166 162 152 135 134 161 149 122 117 145 122 112 120 122 120
1 352 335 289 211 209 213 212 214 218 221 222 221 212 202 217 223 224 225 221 184 159 150 156 168 198 188 195 195 187 186 180 191 186 180 185 187 177 182 194 184 173 164 171 192 185 183 179 177 171 169 166 172 164 155 162 161 157 160 169 162 167 165 166 180 176 142 142 131 158 170 176 144 127 101 117 123 111 110 115 125 117 107 124 116